When you browse on this site, cookies collect data to enhance your experience and personalize the content and advertising you see.
Visit our Privacy Policy to learn more. By continuing to use the site, you agree to this use of cookies and data.
  • In Portugal
  • List of Countries
  • For 7 days
  • Water Temperature
  • Weather Map
  • Weather Widgets
  • user-avatar
    Login

    Hourly Weather Linares

    Today, 20 August, Tuesday

    Time Temperature Precipitation Wind Pressure Humidity
    00:00 +24°C° 0 mm 2 mps 725 mmHg 36%
    01:00 +23°C° 0 mm 1 mps 725 mmHg 39%
    02:00 +21°C° 0 mm 1 mps 725 mmHg 42%
    03:00 +18°C° 0 mm 0 mps 725 mmHg 45%
    04:00 +18°C° 0 mm 0 mps 725 mmHg 45%
    05:00 +18°C° 0 mm 0 mps 725 mmHg 45%
    06:00 +17°C° 0 mm 0 mps 725 mmHg 46%
    07:00 +20°C° 0 mm 0 mps 725 mmHg 39%
    08:00 +23°C° 0 mm 0 mps 726 mmHg 32%
    09:00 +28°C° 0 mm 1 mps 726 mmHg 25%
    10:00 +31°C° 0 mm 1 mps 727 mmHg 21%
    11:00 +33°C° 0 mm 1 mps 727 mmHg 17%
    12:00 +36°C° 0 mm 2 mps 727 mmHg 14%
    13:00 +37°C° 0 mm 2 mps 727 mmHg 13%
    14:00 +38°C° 0 mm 2 mps 727 mmHg 12%
    15:00 +39°C° 0 mm 3 mps 726 mmHg 12%
    16:00 +38°C° 0 mm 3 mps 726 mmHg 12%
    17:00 +38°C° 0 mm 3 mps 726 mmHg 12%
    18:00 +37°C° 0 mm 3 mps 727 mmHg 12%
    19:00 +34°C° 0 mm 3 mps 727 mmHg 19%
    20:00 +30°C° 0 mm 2 mps 727 mmHg 25%
    21:00 +27°C° 0 mm 2 mps 727 mmHg 32%
    22:00 +26°C° 0 mm 2 mps 728 mmHg 41%
    23:00 +24°C° 0 mm 1 mps 728 mmHg 50%

    Tomorrow, 21 August, Wednesday

    Time Temperature Precipitation Wind Pressure Humidity
    00:00 +23°C° 0 mm 1 mps 728 mmHg 60%
    01:00 +23°C° 0 mm 1 mps 728 mmHg 63%
    02:00 +22°C° 0 mm 1 mps 728 mmHg 66%
    03:00 +19°C° 0 mm 0 mps 728 mmHg 69%
    04:00 +22°C° 0 mm 1 mps 728 mmHg 71%
    05:00 +22°C° 0 mm 1 mps 728 mmHg 73%
    06:00 +22°C° 0 mm 1 mps 728 mmHg 76%
    07:00 +24°C° 0 mm 1 mps 728 mmHg 67%
    08:00 +27°C° 0 mm 1 mps 728 mmHg 58%
    09:00 +29°C° 0 mm 1 mps 729 mmHg 49%
    10:00 +31°C° 0.1 mm 2 mps 728 mmHg 43%
    11:00 +34°C° 0.1 mm 2 mps 728 mmHg 38%
    12:00 +36°C° 0.1 mm 2 mps 728 mmHg 32%
    13:00 +36°C° 0 mm 2 mps 728 mmHg 30%
    14:00 +36°C° 0 mm 2 mps 727 mmHg 28%
    15:00 +37°C° 0 mm 2 mps 727 mmHg 26%
    16:00 +36°C° 0 mm 2 mps 727 mmHg 28%
    17:00 +35°C° 0 mm 2 mps 727 mmHg 29%
    18:00 +35°C° 0 mm 3 mps 727 mmHg 31%
    19:00 +32°C° 0 mm 2 mps 727 mmHg 36%
    20:00 +30°C° 0 mm 2 mps 728 mmHg 42%
    21:00 +28°C° 0 mm 1 mps 728 mmHg 47%
    22:00 +27°C° 0 mm 1 mps 728 mmHg 53%
    23:00 +26°C° 0 mm 1 mps 728 mmHg 58%

    Day after tomorrow, 22 August, Thursday

    Time Temperature Precipitation Wind Pressure Humidity
    00:00 +25°C° 0 mm 1 mps 728 mmHg 64%
    01:00 +24°C° 0 mm 1 mps 728 mmHg 69%
    02:00 +23°C° 0 mm 1 mps 728 mmHg 74%
    03:00 +22°C° 0 mm 1 mps 727 mmHg 80%
    04:00 +22°C° 0 mm 1 mps 728 mmHg 81%
    05:00 +20°C° 0 mm 0 mps 728 mmHg 83%
    06:00 +19°C° 0 mm 0 mps 728 mmHg 84%
    07:00 +24°C° 0 mm 1 mps 728 mmHg 72%
    08:00 +27°C° 0 mm 1 mps 728 mmHg 60%
    09:00 +30°C° 0 mm 2 mps 729 mmHg 48%
    10:00 +32°C° 0 mm 2 mps 729 mmHg 40%
    11:00 +35°C° 0 mm 2 mps 729 mmHg 31%
    12:00 +37°C° 0 mm 3 mps 729 mmHg 23%
    13:00 +38°C° 0 mm 3 mps 728 mmHg 20%
    14:00 +39°C° 0 mm 3 mps 728 mmHg 18%
    15:00 +39°C° 0 mm 3 mps 727 mmHg 15%
    16:00 +38°C° 0 mm 3 mps 727 mmHg 18%
    17:00 +37°C° 0 mm 4 mps 727 mmHg 20%
    18:00 +37°C° 0 mm 4 mps 727 mmHg 22%
    19:00 +33°C° 0 mm 3 mps 727 mmHg 32%
    20:00 +29°C° 0 mm 2 mps 728 mmHg 42%
    21:00 +26°C° 0 mm 2 mps 728 mmHg 51%
    22:00 +25°C° 0 mm 1 mps 728 mmHg 54%
    23:00 +25°C° 0 mm 1 mps 728 mmHg 57%

    23 August, Friday

    Time Temperature Precipitation Wind Pressure Humidity
    00:00 +24°C° 0 mm 1 mps 728 mmHg 60%
    01:00 +23°C° 0 mm 1 mps 728 mmHg 62%
    02:00 +22°C° 0 mm 1 mps 728 mmHg 63%
    03:00 +22°C° 0 mm 1 mps 727 mmHg 64%
    04:00 +22°C° 0 mm 1 mps 727 mmHg 63%
    05:00 +21°C° 0 mm 1 mps 728 mmHg 63%
    06:00 +21°C° 0 mm 1 mps 728 mmHg 62%
    07:00 +24°C° 0 mm 1 mps 728 mmHg 50%
    08:00 +27°C° 0 mm 2 mps 728 mmHg 38%
    09:00 +30°C° 0 mm 2 mps 729 mmHg 26%
    10:00 +32°C° 0 mm 2 mps 729 mmHg 23%
    11:00 +35°C° 0 mm 2 mps 728 mmHg 19%
    12:00 +38°C° 0 mm 2 mps 728 mmHg 15%
    13:00 +38°C° 0 mm 2 mps 728 mmHg 14%
    14:00 +39°C° 0 mm 2 mps 727 mmHg 13%
    15:00 +40°C° 0 mm 2 mps 727 mmHg 12%
    16:00 +39°C° 0 mm 2 mps 727 mmHg 12%
    17:00 +38°C° 0 mm 2 mps 726 mmHg 13%
    18:00 +38°C° 0 mm 2 mps 726 mmHg 13%
    19:00 +34°C° 0 mm 2 mps 727 mmHg 22%
    20:00 +29°C° 0 mm 2 mps 727 mmHg 30%
    21:00 +26°C° 0 mm 1 mps 727 mmHg 38%
    22:00 +25°C° 0 mm 1 mps 727 mmHg 42%
    23:00 +24°C° 0 mm 1 mps 727 mmHg 46%

    24 August, Saturday

    Time Temperature Precipitation Wind Pressure Humidity
    00:00 +23°C° 0 mm 1 mps 727 mmHg 49%
    01:00 +22°C° 0 mm 1 mps 727 mmHg 51%
    02:00 +22°C° 0 mm 1 mps 727 mmHg 53%
    03:00 +21°C° 0 mm 1 mps 727 mmHg 55%
    04:00 +21°C° 0 mm 1 mps 727 mmHg 55%
    05:00 +21°C° 0 mm 1 mps 727 mmHg 56%
    06:00 +21°C° 0 mm 1 mps 727 mmHg 57%
    07:00 +24°C° 0 mm 1 mps 727 mmHg 47%
    08:00 +27°C° 0 mm 1 mps 728 mmHg 37%
    09:00 +31°C° 0 mm 2 mps 728 mmHg 28%
    10:00 +33°C° 0 mm 1 mps 728 mmHg 24%
    11:00 +35°C° 0 mm 1 mps 728 mmHg 19%
    12:00 +39°C° 0 mm 1 mps 727 mmHg 15%
    13:00 +39°C° 0 mm 1 mps 727 mmHg 14%
    14:00 +40°C° 0 mm 2 mps 727 mmHg 13%
    15:00 +41°C° 0 mm 2 mps 726 mmHg 11%
    16:00 +40°C° 0 mm 3 mps 726 mmHg 12%
    17:00 +39°C° 0 mm 3 mps 726 mmHg 13%
    18:00 +38°C° 0 mm 4 mps 726 mmHg 14%
    19:00 +35°C° 0 mm 3 mps 726 mmHg 20%
    20:00 +30°C° 0 mm 2 mps 726 mmHg 26%
    21:00 +27°C° 0 mm 1 mps 726 mmHg 32%
    22:00 +26°C° 0 mm 1 mps 726 mmHg 36%
    23:00 +25°C° 0 mm 1 mps 726 mmHg 41%

    25 August, Sunday

    Time Temperature Precipitation Wind Pressure Humidity
    00:00 +24°C° 0 mm 1 mps 726 mmHg 45%
    01:00 +23°C° 0 mm 1 mps 726 mmHg 48%
    02:00 +22°C° 0 mm 1 mps 726 mmHg 52%
    03:00 +21°C° 0 mm 1 mps 725 mmHg 55%
    04:00 +21°C° 0 mm 1 mps 725 mmHg 55%
    05:00 +21°C° 0 mm 1 mps 726 mmHg 56%
    06:00 +21°C° 0 mm 1 mps 726 mmHg 56%
    07:00 +24°C° 0 mm 1 mps 726 mmHg 47%
    08:00 +28°C° 0 mm 1 mps 726 mmHg 37%
    09:00 +31°C° 0 mm 2 mps 726 mmHg 28%
    10:00 +33°C° 0 mm 1 mps 726 mmHg 23%
    11:00 +36°C° 0 mm 1 mps 726 mmHg 19%
    12:00 +39°C° 0 mm 1 mps 726 mmHg 15%
    13:00 +39°C° 0 mm 2 mps 726 mmHg 13%
    14:00 +40°C° 0 mm 2 mps 725 mmHg 12%
    15:00 +42°C° 0 mm 3 mps 725 mmHg 11%
    16:00 +41°C° 0 mm 4 mps 725 mmHg 12%
    17:00 +38°C° 0 mm 4 mps 725 mmHg 13%
    18:00 +37°C° 0 mm 5 mps 725 mmHg 15%
    19:00 +34°C° 0 mm 4 mps 725 mmHg 21%
    20:00 +30°C° 0 mm 3 mps 725 mmHg 27%
    21:00 +26°C° 0 mm 1 mps 725 mmHg 34%
    22:00 +25°C° 0 mm 1 mps 726 mmHg 38%
    23:00 +25°C° 0 mm 1 mps 726 mmHg 42%
    Show more